Date String (YYYY-MM-DD hh:mm:ss) UTC,Instrument flags,absolute air pressure of the measurement (hPa),sample flow rate (lpm),inlet stack bypass flow (lpm),air temperature of the measurement (°C),ambient temperature measured by the external sensor (°C),aerosol sample conditioner tube jacket temperature (°C),OPC LED temperature (°C),internal box temperature (°C),relative humidity of the measurement (%),span deviation,mass concentration of particles derived from Lorenz-Mie calculation of OPC scattering (μg/m³),mass concentration of particles derived from Lorenz-Mie calculation of OPC scattering (μg/m³),mass concentration of particles derived from Lorenz-Mie calculation of OPC scattering (μg/m³)
DateTimeUTC,F1_M11,P_M11,Q1_M11,Q2_M11,T1_M11,T2_M11,T3_M11,T4_M11,T5_M11,U1_M11,ZSPAN_M11,X0_M11,X2_M11,X1_M11
2023-07-18 16:00:00,SystemResetWarning,0832.5,4.99,000.00,028.8,026.3,000.0,037.1,030.3,27.1,0000.0,0017.80,0005.71,0004.52
2023-07-18 16:01:00,SystemResetWarning,0832.5,5.00,000.00,028.8,026.7,000.0,037.1,030.4,26.7,0000.0,0018.54,0005.60,0004.50
2023-07-18 16:02:00,SystemResetWarning,0832.5,5.01,000.00,028.8,027.1,000.0,037.2,030.5,27.2,0000.0,0019.02,0005.58,0004.49
2023-07-18 16:03:00,SystemResetWarning,0832.5,5.01,000.00,028.9,027.2,000.0,037.2,030.5,28.1,0000.0,0020.08,0005.68,0004.50
2023-07-18 16:04:00,SystemResetWarning,0832.6,4.99,000.00,028.9,026.1,000.0,037.1,030.4,27.1,0000.0,0021.66,0005.86,0004.53
2023-07-18 16:05:00,SystemResetWarning,0832.5,5.00,000.00,028.8,025.1,000.0,037.0,030.2,25.7,0000.0,0021.85,0005.87,0004.58
2023-07-18 16:06:00,SystemResetWarning,0832.5,5.02,000.00,028.8,025.4,000.0,036.9,030.2,26.1,0000.0,0021.36,0005.91,0004.61
2023-07-18 16:07:00,SystemResetWarning,0832.5,5.00,000.00,028.7,025.8,000.0,037.0,030.2,26.5,0000.0,0021.01,0005.94,0004.65
2023-07-18 16:08:00,SystemResetWarning,0832.5,5.00,000.00,028.7,026.2,000.0,037.0,030.2,25.4,0000.0,0020.88,0005.97,0004.69
2023-07-18 16:09:00,SystemResetWarning,0832.6,5.00,000.00,028.7,026.6,000.0,037.1,030.3,26.2,0000.0,0020.75,0006.02,0004.72
2023-07-18 16:10:00,SystemResetWarning,0832.6,5.00,000.00,028.8,027.0,000.0,037.1,030.4,23.8,0000.0,0019.60,0006.09,0004.76
2023-07-18 16:11:00,SystemResetWarning,0832.6,5.00,000.00,028.8,027.2,000.0,037.1,030.5,23.0,0000.0,0019.91,0006.09,0004.79
2023-07-18 16:12:00,SystemResetWarning,0832.5,4.98,000.00,028.8,026.1,000.0,037.0,030.4,23.5,0000.0,0019.74,0006.19,0004.84
2023-07-18 16:13:00,SystemResetWarning,0832.5,5.01,000.00,028.8,025.2,000.0,036.9,030.2,23.9,0000.0,0019.12,0006.21,0004.87
2023-07-18 16:14:00,SystemResetWarning,0832.5,5.02,000.00,028.7,025.5,000.0,036.9,030.2,26.6,0000.0,0018.17,0006.14,0004.89
2023-07-18 16:15:00,SystemResetWarning,0832.5,4.99,000.00,028.7,025.8,000.0,037.0,030.1,25.7,0000.0,0016.19,0005.99,0004.89
2023-07-18 16:16:00,SystemResetWarning,0832.5,5.00,000.00,028.7,026.3,000.0,037.0,030.2,24.3,0000.0,0015.38,0005.98,0004.88
2023-07-18 16:17:00,SystemResetWarning,0832.5,5.00,000.00,028.7,026.7,000.0,037.0,030.3,25.5,0000.0,0015.31,0005.98,0004.87
2023-07-18 16:18:00,SystemResetWarning,0832.6,5.00,000.00,028.8,027.0,000.0,037.1,030.4,25.8,0000.0,0014.87,0005.97,0004.87
2023-07-18 16:19:00,SystemResetWarning,0832.6,5.00,000.00,028.8,027.2,000.0,037.1,030.5,22.4,0000.0,0014.41,0005.94,0004.86
2023-07-18 16:20:00,SystemResetWarning,0832.6,4.98,000.00,028.8,026.1,000.0,037.0,030.3,22.8,0000.0,0013.69,0005.85,0004.82
2023-07-18 16:21:00,SystemResetWarning,0832.7,5.02,000.00,028.7,025.2,000.0,036.9,030.2,24.7,0000.0,0013.20,0005.75,0004.79
2023-07-18 16:22:00,SystemResetWarning,0832.6,5.00,000.00,028.7,025.5,000.0,036.9,030.2,25.9,0000.0,0012.17,0005.69,0004.76
2023-07-18 16:23:00,SystemResetWarning,0832.6,5.00,000.00,028.7,025.8,000.0,036.9,030.1,25.6,0000.0,0011.32,0005.60,0004.73
2023-07-18 16:24:00,SystemResetWarning,0832.6,5.01,000.00,028.7,026.2,000.0,037.0,030.2,23.9,0000.0,0011.29,0005.53,0004.72
2023-07-18 16:25:00,SystemResetWarning,0832.6,5.00,000.00,028.7,026.6,000.0,037.0,030.3,22.9,0000.0,0011.28,0005.51,0004.70
2023-07-18 16:26:00,SystemResetWarning,0832.6,5.00,000.00,028.7,027.0,000.0,037.0,030.4,21.7,0000.0,0012.19,0005.48,0004.69
2023-07-18 16:27:00,SystemResetWarning,0832.6,5.00,000.00,028.8,027.2,000.0,037.0,030.4,22.4,0000.0,0012.75,0005.44,0004.67
2023-07-18 16:28:00,SystemResetWarning,0832.6,4.98,000.00,028.8,026.0,000.0,037.0,030.3,22.9,0000.0,0012.96,0005.38,0004.64
2023-07-18 16:29:00,SystemResetWarning,0832.6,5.00,000.00,028.7,025.1,000.0,036.9,030.1,22.9,0000.0,0013.60,0005.38,0004.63
2023-07-18 16:30:00,SystemResetWarning,0832.6,5.01,000.00,028.7,025.4,000.0,036.8,030.1,22.0,0000.0,0014.96,0005.34,0004.60
2023-07-18 16:31:00,SystemResetWarning,0832.6,4.99,000.00,028.6,025.8,000.0,036.9,030.1,22.6,0000.0,0014.90,0005.40,0004.59
2023-07-18 16:32:00,SystemResetWarning,0832.7,5.00,000.00,028.6,026.2,000.0,036.9,030.2,21.3,0000.0,0016.16,0005.44,0004.59
2023-07-18 16:33:00,SystemResetWarning,0832.7,5.00,000.00,028.7,026.6,000.0,037.0,030.2,20.4,0000.0,0016.74,0005.45,0004.59
2023-07-18 16:34:00,SystemResetWarning,0832.7,5.00,000.00,028.7,027.0,000.0,037.0,030.3,20.7,0000.0,0016.96,0005.49,0004.60
2023-07-18 16:35:00,SystemResetWarning,0832.7,5.00,000.00,028.7,027.1,000.0,037.0,030.4,21.9,0000.0,0017.27,0005.48,0004.58
2023-07-18 16:36:00,SystemResetWarning,0832.6,4.98,000.00,028.7,026.0,000.0,036.9,030.3,20.7,0000.0,0017.91,0005.46,0004.58
2023-07-18 16:37:00,SystemResetWarning,0832.7,5.01,000.00,028.7,025.1,000.0,036.8,030.1,21.8,0000.0,0017.11,0005.43,0004.56
2023-07-18 16:38:00,SystemResetWarning,0832.6,5.01,000.00,028.6,025.4,000.0,036.8,030.1,20.8,0000.0,0016.20,0005.39,0004.55
2023-07-18 16:39:00,SystemResetWarning,0832.6,5.00,000.00,028.6,025.8,000.0,036.9,030.1,20.5,0000.0,0016.05,0005.39,0004.55
2023-07-18 16:40:00,SystemResetWarning,0832.6,5.00,000.00,028.6,026.2,000.0,036.9,030.2,19.4,0000.0,0016.23,0005.39,0004.54
2023-07-18 16:41:00,SystemResetWarning,0832.7,4.99,000.00,028.6,026.7,000.0,036.9,030.2,21.8,0000.0,0015.21,0005.41,0004.54
2023-07-18 16:42:00,SystemResetWarning,0832.7,5.00,000.00,028.7,027.0,000.0,037.0,030.3,19.7,0000.0,0014.84,0005.37,0004.55
2023-07-18 16:43:00,SystemResetWarning,0832.7,5.00,000.00,028.7,027.3,000.0,037.0,030.4,20.5,0000.0,0014.62,0005.33,0004.54
2023-07-18 16:44:00,SystemResetWarning,0832.7,4.99,000.00,028.8,026.9,000.0,036.9,030.4,19.6,0000.0,0013.80,0005.31,0004.54
2023-07-18 16:45:00,SystemResetWarning,0832.7,4.99,000.00,028.7,025.4,000.0,036.9,030.2,19.5,0000.0,0013.82,0005.28,0004.52
2023-07-18 16:46:00,SystemResetWarning,0832.6,5.01,000.00,028.7,025.3,000.0,036.8,030.2,19.8,0000.0,0013.31,0005.25,0004.51
2023-07-18 16:47:00,SystemResetWarning,0832.7,5.01,000.00,028.7,025.7,000.0,036.8,030.1,20.2,0000.0,0012.69,0005.23,0004.51
2023-07-18 16:48:00,SystemResetWarning,0832.7,5.00,000.00,028.6,026.1,000.0,036.9,030.1,20.8,0000.0,0012.13,0005.25,0004.50
2023-07-18 16:49:00,SystemResetWarning,0832.7,5.00,000.00,028.7,026.5,000.0,036.9,030.2,20.9,0000.0,0012.34,0005.30,0004.50
2023-07-18 16:50:00,SystemResetWarning,0832.7,5.00,000.00,028.7,026.9,000.0,036.9,030.3,21.5,0000.0,0012.49,0005.31,0004.49
2023-07-18 16:51:00,SystemResetWarning,0832.7,5.00,000.00,028.7,027.2,000.0,037.0,030.4,19.8,0000.0,0012.21,0005.28,0004.48
2023-07-18 16:52:00,SystemResetWarning,0832.7,4.98,000.00,028.8,026.8,000.0,036.9,030.4,19.8,0000.0,0012.72,0005.26,0004.47
2023-07-18 16:53:00,SystemResetWarning,0832.7,5.00,000.00,028.7,025.4,000.0,036.9,030.2,20.3,0000.0,0013.91,0005.25,0004.46
2023-07-18 16:54:00,SystemResetWarning,0832.7,5.01,000.00,028.7,025.3,000.0,036.8,030.1,20.4,0000.0,0013.24,0005.23,0004.45
2023-07-18 16:55:00,SystemResetWarning,0832.8,5.00,000.00,028.6,025.7,000.0,036.8,030.1,20.6,0000.0,0012.98,0005.21,0004.44
2023-07-18 16:56:00,SystemResetWarning,0832.7,5.00,000.00,028.6,026.1,000.0,036.9,030.1,21.7,0000.0,0012.49,0005.18,0004.43
2023-07-18 16:57:00,SystemResetWarning,0832.8,4.99,000.00,028.6,026.5,000.0,036.9,030.2,20.2,0000.0,0012.38,0005.19,0004.43
2023-07-18 16:58:00,SystemResetWarning,0832.7,5.01,000.00,028.7,026.9,000.0,037.0,030.3,20.1,0000.0,0012.64,0005.17,0004.43
2023-07-18 16:59:00,SystemResetWarning,0832.8,5.00,000.00,028.7,027.2,000.0,037.0,030.4,20.4,0000.0,0012.82,0005.11,0004.44
